Volver al catálogo

STARLINK-35930

ActivoComunicacionesVLEO
NORAD 66599·PAYLOAD·🇺🇸 United States

Lanzado Nov 22, 2025 desde Cape Canaveral Space Force Station

Loading…

Próximos Pases (próximas 24 horas)

TLE

ActualizadoSource: CelesTrak SupGP

Época: Sep 15, 2026, 03:27 UTC

1 66599C 25270M   26258.14423611 -.00031675  00000+0 -11471-2 0  2583
2 66599  43.0005  66.1971 0001541 267.2959 356.4939 15.27598386    14

Sigue STARLINK-35930 en tiempo real con AllMySat

Download on the App Store